Regional Weather Roundup
Issued by NWS

Home | Current Version | Previous Version | Graphics & Text | Print | Product List | Glossary On
Versions: 1 2 3 4 5 6 7 8 9 10 11 12 13 14 15 16 17 18 19 20 21 22 23 24 25 26 27 28 29 30 31 32 33 34 35 36 37 38 39 40 41 42 43 44 45 46 47 48 49 50
000
ASUS43 KLMK 272202
RWRKY
KENTUCKY REGIONAL WEATHER ROUNDUP
NATIONAL WEATHER SERVICE LOUISVILLE KY
500 PM EST FRI FEB 27 2015

NOTE "FAIR" INDICATES FEW OR NO CLOUDS BELOW 12,000 FEET
WITH NO SIGNIFICANT WEATHER AND/OR OBSTRUCTIONS TO VISIBILITY.

KYZ001>023-026-027-061>063-070>075-272300-
WESTERN AND SOUTH CENTRAL KENTUCKY

CITY           SKY/WX    TMP DP  RH WIND       PRES   REMARKS
PADUCAH        PTSUNNY   25   9  50 NE7       30.58F WCI  17
HENDERSON      CLOUDY    21   9  58 NE7       30.62S WCI  13
OWENSBORO      MOSUNNY   24   8  50 VRB7      30.61S WCI  16
HOPKINSVILLE   SUNNY     26   9  48 NE2       30.56S
BOWLING GREEN  SUNNY     28   5  37 NE12      30.56S WCI  18
GLASGOW        NOT AVBL
$$

KYZ024-025-028>034-038-045-046-053-272300-
NORTH CENTRAL KENTUCKY

CITY           SKY/WX    TMP DP  RH WIND       PRES   REMARKS
LOUISVILLE/SDF MOSUNNY   27   4  37 NE8       30.59F WCI  19
LOUISVILLE/LOU SUNNY     24   0  35 SE3       30.60S
FORT KNOX      SUNNY     24   3  40 N7        30.54F WCI  16
$$

KYZ035>037-039>044-047>052-055>060-089>105-272300-
NORTHEAST KENTUCKY

CITY           SKY/WX    TMP DP  RH WIND       PRES   REMARKS
LEXINGTON      SUNNY     22   6  50 E5        30.57S WCI  16
COVINGTON      MOSUNNY   22   1  40 CALM      30.57S
FRANKFORT      SUNNY     24   1  36 VRB6      30.56F WCI  17
$$

KYZ054-064>069-076>088-106>120-272300-
SOUTHEAST KENTUCKY

CITY           SKY/WX    TMP DP  RH WIND       PRES   REMARKS
JACKSON        SUNNY     26   4  38 VRB3      30.50S
LONDON         SUNNY     28   5  37 VRB3      30.50S
SOMERSET       NOT AVBL
MIDDLESBORO    SUNNY     29   9  42 CALM      30.49F
MONTICELLO     CLEAR     26  10  50 E9        30.56S WCI  17
$$



USA.gov is the U.S. government's official web portal to all federal, state and local government web resources and services.